Showing default

PUNCH-NFI00, 63178

Orbit data source: Space-Track

PUNCH-NFI00, 63178 is a payload satellite owned by JPL (US) in SSO that was launched on Wed, 12 Mar 2025 UTC via an FALCON 9 launch vehicle from the Air Force Western Test Range (AFWTR). Payload-class satellites include a variety of spacecraft equipped with specific instruments for various scientific and technological missions. These include communications satellites like Starlink; space stations such as the ISS; scientific satellites like the Hubble; Earth observation satellites from companies like Planet Labs, Umbra, and HawkEye 360; GPS; miniature CubeSats for education and research; and military/defense satellites.

Loading next visibility...
Identifier
63178, 2025-047A
Orbit
SSO
Country
Flag of USUS
Related business
Manufacturer
BAEB
Mission
Operational Civil Astronomy
Bus & Motor
SPHEREX, Unknown motor
Mass
502 kg wet, 502 kg dry
Launch date (UTC)
2025-03-12 (8 months ago)
Launch vehicle
FALCON 9
Launch site
Air Force Western Test Range (AFWTR)
Object type
Payload
Rocket body
Debris
Shape & HBR
Cyl + Cone + 2 Pan, 1.9 m
Radar Cross Section
10.556 m², Medium (>0.1 m² and < 1m²)

Expand to show TLE details & history
Last TLE update: 13 hours ago

TLE from 13 hours ago
0 PUNCH-NFI00
1 63178U 25047A   25308.47386865  .00000914  00000-0  14532-3 0  9990
2 63178  97.9532 132.9588 0011660 154.3452 205.8337 14.74355772 34961
Epoch: 2025-11-04T11:22Z
TLE epoch observation values (Epoch: 2025-11-04T11:22:22.251Z)
Latitude
-0.00006°
Longitude
-81.59428°
Altitude
657.586 km
Speed
7.525 km/s
True Right ascension
08h 51m 50s
True Declination
0° 00' 00"
Sunlit
Object was in daylight at epoch
Visualization orbit readout
Latitude
Unknown
Longitude
Unknown
Altitude
Unknown
Speed
Unknown
Apparent Right ascension
Unknown
Apparent Declination
Unknown
Sunlit
N/A
Visualization observer readout
Local Sidereal Time
20:35:24
Azimuth
Unknown
Elevation
Unknown
Doppler factor
Unknown
Orbital elements
Apogee altitude
652.436 km
Perigee altitude
636.06 km
Semi-major axis
7,022.385 km
Eccentricity
0.00117
Inclination
97.9532°
RAAN
132.9588°
Arg. of periapsis
154.3452°
True anomaly
205.77555°
Mean anomaly
205.8337°
Eccentric anomaly
205.80462°
Mean motion
3.68822 °/min
Orbital period
97.61 mins
BSTAR
0.00014532
Loading maneuver chart data...
Computing Atmospheric mass density...
Loading historical data...
Loading historical data...
Loading historical data...
Loading historical data...
Loading historical data...
Loading historical data...
Loading historical data...
Other satellites on launch #47 in the year 2025 (2025-03-12 UTC)

Documentation

Showing up to 5 results
|